This is the latest recevied weather packets stored in our database for station/object SP1BMW-13. If no packets are shown the sender has not sent any weather packets the latest 10 day(s).
| Time | Temp. | Humidity | Pressure | Rain* | Wind** | Luminosity | Snow |
|---|---|---|---|---|---|---|---|
| 1787651976 | 21.67° C | 58% | 1019.3 hPa | 0 mm | 0.89 m/s, 51° | 602 W/m² | - |
| 1787651920 | 21.67° C | 58% | 1019.2 hPa | 0 mm | 2.24 m/s, 56° | 607 W/m² | - |
| 1787651857 | 21.67° C | 60% | 1019.2 hPa | 0 mm | 0.45 m/s, 41° | 604 W/m² | - |
| 1787651797 | 21.67° C | 57% | 1019.3 hPa | 0 mm | 2.68 m/s, 35° | 606 W/m² | - |
| 1787651736 | 21.67° C | 59% | 1019.2 hPa | 0 mm | 1.34 m/s, 78° | 606 W/m² | - |
| 1787651677 | 21.67° C | 59% | 1019.1 hPa | 0 mm | 1.79 m/s, 19° | 602 W/m² | - |
| 1787651617 | 21.67° C | 58% | 1019.1 hPa | 0 mm | 1.34 m/s, 40° | 599 W/m² | - |
| 1787651558 | 21.67° C | 60% | 1019.1 hPa | 0 mm | 1.34 m/s, 55° | 598 W/m² | - |
| 1787651497 | 21.67° C | 60% | 1019.4 hPa | 0 mm | 0.89 m/s, 37° | 596 W/m² | - |
| 1787651437 | 21.67° C | 61% | 1019.2 hPa | 0 mm | 1.79 m/s, 47° | 593 W/m² | - |
| 1787651377 | 21.67° C | 60% | 1019.4 hPa | 0 mm | 1.79 m/s, 31° | 594 W/m² | - |
| 1787651317 | 21.67° C | 59% | 1019.3 hPa | 0 mm | 0.89 m/s, 40° | 597 W/m² | - |
| 1787651257 | 21.67° C | 60% | 1019.1 hPa | 0 mm | 0.89 m/s, 38° | 604 W/m² | - |
| 1787651198 | 21.67° C | 59% | 1019.3 hPa | 0 mm | 2.24 m/s, 40° | 599 W/m² | - |
| 1787651137 | 21.67° C | 60% | 1019.1 hPa | 0 mm | 1.34 m/s, 51° | 385 W/m² | - |
| 1787651077 | 22.22° C | 59% | 1019.2 hPa | 0 mm | 0.45 m/s, 16° | 590 W/m² | - |
| 1787651017 | 22.22° C | 59% | 1019.3 hPa | 0 mm | 1.34 m/s, 39° | 593 W/m² | - |
| 1787650957 | 22.22° C | 60% | 1019.1 hPa | 0 mm | 1.79 m/s, 58° | 598 W/m² | - |
| 1787650898 | 22.22° C | 60% | 1019.2 hPa | 0 mm | 0.89 m/s, 29° | 605 W/m² | - |
| 1787650836 | 22.22° C | 61% | 1019.2 hPa | 0 mm | 0.45 m/s, 34° | 596 W/m² | - |
| 1787650776 | 22.22° C | 61% | 1019.2 hPa | 0 mm | 0.89 m/s, 86° | 603 W/m² | - |
| 1787650716 | 22.22° C | 61% | 1019.4 hPa | 0 mm | 0.89 m/s, 331° | 577 W/m² | - |
| 1787650656 | 22.22° C | 58% | 1019.3 hPa | 0 mm | 0.89 m/s, 140° | 576 W/m² | - |
| 1787650596 | 21.67° C | 60% | 1019.2 hPa | 0 mm | 0.45 m/s, 121° | 578 W/m² | - |
| 1787650540 | 21.67° C | 61% | 1019.1 hPa | 0 mm | 0.89 m/s, 151° | 590 W/m² | - |
* Rain latest hour (hover to see other rain measurements)
** Current wind speed in m/s (hover to see current wind gust speed)